Ada, OK

9:05 AM CDT on April 30, 2017 (GMT -0500)
Ada Municipal

Weather History for KADH - May, 2014

Change the Weather History Date:

Monday, May 5, 2014

  Actual Average Record
Temperature  
Mean Temperature 74 °F -  
Max Temperature 87 °F 77 °F 90 °F (1909)
Min Temperature 60 °F 54 °F 32 °F (1911)
Cooling Degree Days 8    
Growing Degree Days 24 (Base 50)    
Moisture  
Dew Point 55 °F    
Average Humidity 51    
Maximum Humidity 69    
Minimum Humidity 37    
Precipitation  
Precipitation 0.00 in - - ()
Sea Level Pressure  
Sea Level Pressure 29.81 in    
Wind  
Wind Speed 15 mph (South)    
Max Wind Speed 20 mph    
Max Gust Speed 30 mph    
Visibility 10 miles    
Events      
Averages and records for this station are not official NWS values.
T = Trace of Precipitation, MM = Missing Value Source: NWS Daily Summary

Daily Weather History Graph

Daily Weather History Graph

Search for Another Location

Airport or City:

Trip Planner

Search our weather history database for the weather conditions in past years. The results will help you decide how hot, cold, wet, or windy it might be!

Date:

Astronomy

May. 05, 2014 Rise Set
Actual Time 6:32 AM CDT 8:15 PM CDT
Civil Twilight 6:04 AM CDT 8:42 PM CDT
Nautical Twilight 5:32 AM CDT 9:15 PM CDT
Astronomical Twilight 4:57 AM CDT 9:50 PM CDT
Moon 11:52 AM CDT (5/5) 1:00 AM CDT (5/5)
Length of Visible Light 14h 37m
Length of Day
13h 42m
Waxing Crescent, 37% of the Moon is Illuminated
May 5
Waxing Crescent
May 6
First Quarter
May 14
Full
May 21
Last Quarter
May 28
New

Hourly Weather History & Observations

Time (CDT) Temp. Heat Index Dew Point Humidity Pressure Visibility Wind Dir Wind Speed Gust Speed Precip Events Conditions
12:15 AM 71.6 °F - 50.0 °F 46% 29.87 in 10.0 mi South 15.0 mph 21.9 mph N/A   Clear
12:35 AM 71.6 °F - 50.0 °F 46% 29.86 in 10.0 mi South 16.1 mph 20.7 mph N/A   Clear
12:55 AM 69.8 °F - 50.0 °F 49% 29.86 in 10.0 mi South 15.0 mph 19.6 mph N/A   Clear
1:15 AM 69.8 °F - 50.0 °F 49% 29.86 in 10.0 mi South 10.4 mph - N/A   Clear
1:35 AM 69.8 °F - 50.0 °F 49% 29.86 in 10.0 mi South 10.4 mph 16.1 mph N/A   Clear
1:55 AM 69.8 °F - 50.0 °F 49% 29.86 in 10.0 mi South 12.7 mph - N/A   Clear
2:15 AM 68.0 °F - 50.0 °F 52% 29.85 in 10.0 mi South 12.7 mph - N/A   Clear
2:35 AM 68.0 °F - 50.0 °F 52% 29.85 in 10.0 mi South 13.8 mph 18.4 mph N/A   Clear
2:55 AM 68.0 °F - 50.0 °F 52% 29.85 in 10.0 mi South 12.7 mph 19.6 mph N/A   Clear
3:15 AM 68.0 °F - 50.0 °F 52% 29.85 in 10.0 mi South 11.5 mph 19.6 mph N/A   Clear
3:35 AM 68.0 °F - 50.0 °F 52% 29.85 in 10.0 mi South 12.7 mph 19.6 mph N/A   Clear
3:55 AM 66.2 °F - 50.0 °F 56% 29.85 in 10.0 mi South 13.8 mph 17.3 mph N/A   Clear
4:15 AM 66.2 °F - 50.0 °F 56% 29.85 in 10.0 mi South 12.7 mph 17.3 mph N/A   Clear
4:35 AM 64.4 °F - 48.2 °F 56% 29.85 in 10.0 mi South 12.7 mph - N/A   Clear
4:55 AM 64.4 °F - 48.2 °F 56% 29.85 in 10.0 mi South 13.8 mph - N/A   Clear
5:15 AM 64.4 °F - 48.2 °F 56% 29.85 in 10.0 mi South 10.4 mph - N/A   Clear
5:35 AM 64.4 °F - 46.4 °F 52% 29.85 in 10.0 mi South 10.4 mph - N/A   Clear
5:55 AM 62.6 °F - 46.4 °F 55% 29.85 in 10.0 mi South 10.4 mph 17.3 mph N/A   Clear
6:15 AM 62.6 °F - 46.4 °F 55% 29.85 in 10.0 mi South 11.5 mph - N/A   Clear
6:35 AM 60.8 °F - 46.4 °F 59% 29.85 in 10.0 mi South 11.5 mph - N/A   Clear
6:55 AM 62.6 °F - 46.4 °F 55% 29.86 in 10.0 mi South 11.5 mph 18.4 mph N/A   Clear
7:15 AM 62.6 °F - 46.4 °F 55% 29.86 in 10.0 mi South 12.7 mph - N/A   Clear
7:35 AM 62.6 °F - 48.2 °F 59% 29.87 in 10.0 mi South 13.8 mph 17.3 mph N/A   Clear
7:55 AM 62.6 °F - 48.2 °F 59% 29.86 in 10.0 mi South 13.8 mph - N/A   Clear
8:15 AM 64.4 °F - 50.0 °F 59% 29.86 in 10.0 mi South 11.5 mph - N/A   Clear
8:35 AM 68.0 °F - 50.0 °F 52% 29.86 in 10.0 mi South 11.5 mph 19.6 mph N/A   Clear
8:55 AM 68.0 °F - 50.0 °F 52% 29.87 in 10.0 mi SSW 12.7 mph 17.3 mph N/A   Clear
9:15 AM 69.8 °F - 51.8 °F 53% 29.86 in 10.0 mi South 11.5 mph - N/A   Clear
9:35 AM 71.6 °F - 51.8 °F 50% 29.86 in 10.0 mi South 16.1 mph 20.7 mph N/A   Clear
9:55 AM 73.4 °F - 53.6 °F 50% 29.86 in 10.0 mi SSW 17.3 mph 21.9 mph N/A   Clear
10:15 AM 73.4 °F - 53.6 °F 50% 29.85 in 10.0 mi SSW 15.0 mph - N/A   Clear
10:35 AM 77.0 °F - 55.4 °F 47% 29.85 in 10.0 mi SSW 17.3 mph - N/A   Clear
10:55 AM 77.0 °F - 55.4 °F 47% 29.85 in 10.0 mi SSW 16.1 mph 20.7 mph N/A   Clear
11:15 AM 78.8 °F - 55.4 °F 44% 29.85 in 10.0 mi South 17.3 mph - N/A   Clear
11:35 AM 80.6 °F 80.5 °F 55.4 °F 42% 29.85 in 10.0 mi South 15.0 mph 20.7 mph N/A   Clear
11:55 AM 80.6 °F 80.8 °F 57.2 °F 45% 29.84 in 10.0 mi South 13.8 mph 19.6 mph N/A   Clear
12:15 PM 82.4 °F 82.0 °F 57.2 °F 42% 29.83 in 10.0 mi SSW 13.8 mph 23.0 mph N/A   Clear
12:35 PM 82.4 °F 82.0 °F 57.2 °F 42% 29.82 in 10.0 mi SSW 16.1 mph - N/A   Clear
12:55 PM 84.2 °F 83.8 °F 59.0 °F 42% 29.82 in 10.0 mi South 17.3 mph 21.9 mph N/A   Clear
1:15 PM 86.0 °F 84.9 °F 57.2 °F 37% 29.81 in 10.0 mi South 18.4 mph 23.0 mph N/A   Clear
1:35 PM 86.0 °F 85.4 °F 59.0 °F 40% 29.80 in 10.0 mi South 13.8 mph 21.9 mph N/A   Clear
1:55 PM 86.0 °F 85.4 °F 59.0 °F 40% 29.79 in 10.0 mi South 19.6 mph 24.2 mph N/A   Clear
2:15 PM 87.8 °F 87.6 °F 60.8 °F 40% 29.79 in 10.0 mi South 17.3 mph 24.2 mph N/A   Clear
2:35 PM 87.8 °F 87.6 °F 60.8 °F 40% 29.78 in 10.0 mi South 15.0 mph 25.3 mph N/A   Clear
2:55 PM 87.8 °F 88.5 °F 62.6 °F 43% 29.77 in 10.0 mi South 19.6 mph 25.3 mph N/A   Clear
3:15 PM 87.8 °F 87.6 °F 60.8 °F 40% 29.77 in 10.0 mi South 19.6 mph 25.3 mph N/A   Clear
3:35 PM 87.8 °F 87.6 °F 60.8 °F 40% 29.76 in 10.0 mi South 18.4 mph 24.2 mph N/A   Clear
3:55 PM 87.8 °F 87.6 °F 60.8 °F 40% 29.75 in 10.0 mi South 16.1 mph 24.2 mph N/A   Clear
4:15 PM 87.8 °F 87.6 °F 60.8 °F 40% 29.75 in 10.0 mi South 19.6 mph 26.5 mph N/A   Clear
4:35 PM 87.8 °F 88.5 °F 62.6 °F 43% 29.74 in 10.0 mi South 18.4 mph - N/A   Clear
4:55 PM 87.8 °F 88.5 °F 62.6 °F 43% 29.73 in 10.0 mi South 19.6 mph 25.3 mph N/A   Clear
5:15 PM 86.0 °F 86.1 °F 60.8 °F 43% 29.73 in 10.0 mi South 18.4 mph 29.9 mph N/A   Clear
5:35 PM 86.0 °F 86.6 °F 62.6 °F 45% 29.72 in 10.0 mi South 17.3 mph 28.8 mph N/A   Clear
5:55 PM 86.0 °F 86.6 °F 62.6 °F 45% 29.73 in 10.0 mi South 18.4 mph 25.3 mph N/A   Clear
6:15 PM 86.0 °F 86.6 °F 62.6 °F 45% 29.73 in 10.0 mi South 18.4 mph 26.5 mph N/A   Clear
6:35 PM 84.2 °F 85.0 °F 62.6 °F 48% 29.73 in 10.0 mi South 18.4 mph 24.2 mph N/A   Clear
6:55 PM 82.4 °F 83.4 °F 62.6 °F 51% 29.73 in 10.0 mi South 18.4 mph 27.6 mph N/A   Clear
7:15 PM 82.4 °F 83.4 °F 62.6 °F 51% 29.72 in 10.0 mi South 16.1 mph 23.0 mph N/A   Clear
7:35 PM 80.6 °F 81.8 °F 62.6 °F 54% 29.72 in 10.0 mi South 18.4 mph 24.2 mph N/A   Clear
7:55 PM 78.8 °F - 62.6 °F 57% 29.72 in 10.0 mi SSE 16.1 mph 26.5 mph N/A   Clear
8:15 PM 78.8 °F - 62.6 °F 57% 29.73 in 10.0 mi SSE 16.1 mph - N/A   Clear
8:35 PM 77.0 °F - 60.8 °F 57% 29.73 in 10.0 mi SSE 16.1 mph 23.0 mph N/A   Clear
8:55 PM 77.0 °F - 60.8 °F 57% 29.73 in 10.0 mi SSE 15.0 mph 21.9 mph N/A   Clear
9:15 PM 77.0 °F - 59.0 °F 54% 29.73 in 10.0 mi SSE 16.1 mph 24.2 mph N/A   Clear
9:35 PM 73.4 °F - 60.8 °F 65% 29.74 in 10.0 mi SSE 15.0 mph 19.6 mph N/A   Clear
9:55 PM 73.4 °F - 60.8 °F 65% 29.74 in 10.0 mi SSE 13.8 mph 20.7 mph N/A   Clear
10:15 PM 73.4 °F - 60.8 °F 65% 29.75 in 10.0 mi SSE 16.1 mph 21.9 mph N/A   Clear
10:35 PM 71.6 °F - 60.8 °F 69% 29.75 in 10.0 mi SSE 19.6 mph - N/A   Clear
10:55 PM 71.6 °F - 60.8 °F 69% 29.75 in 10.0 mi South 13.8 mph - N/A   Clear
11:15 PM 71.6 °F - 60.8 °F 69% 29.75 in 10.0 mi South 19.6 mph 24.2 mph N/A   Clear
11:35 PM 71.6 °F - 59.0 °F 64% 29.75 in 10.0 mi South 18.4 mph 26.5 mph N/A   Clear